DW0340 Weather Reports


Display with metric or nautical units.
time (UTC)temp
F
wind
direction
speed
MPH
gust
MPH
rain 1hr
in
rain 24hr
in
rain mn
in
humidity
%
barometer
mb
20260505193048 61 295 5.0 0.0 0.00 0.00 0.00 70 1001.4
20260505191601 60 263 6.0 0.0 0.00 0.00 0.00 73 1001.3
20260505190055 60 285 6.0 0.0 0.00 0.00 0.00 75 1001.3
20260505184546 61 292 7.0 0.0 0.00 0.00 0.00 75 1001.1
20260505183109 63 286 8.0 0.0 0.00 0.00 0.00 76 1001.0
20260505181541 66 295 8.0 0.0 0.00 0.00 0.00 65 1000.6
20260505180043 67 269 9.0 0.0 0.00 0.00 0.00 61 1000.0
20260505174540 69 284 7.0 0.0 0.00 0.00 0.00 60 1000.1
20260505173047 69 234 7.0 0.0 0.00 0.00 0.00 61 999.8
20260505171544 66 250 6.0 0.0 0.00 0.00 0.00 64 1000.1
20260505170037 66 226 7.0 0.0 0.00 0.00 0.00 64 999.7
20260505164535 66 254 8.0 0.0 0.00 0.00 0.00 63 1000.0
20260505163035 67 254 9.0 0.0 0.00 0.00 0.00 62 999.9
20260505161533 68 221 11.0 0.0 0.00 0.00 0.00 60 999.6
20260505153026 66 161 9.0 0.0 0.00 0.00 0.00 63 999.0
20260505151530 65 289 8.0 0.0 0.00 0.00 0.00 65 999.2
20260505124558 59 236 5.0 0.0 0.00 0.00 0.00 78 999.0
20260505123055 58 160 5.0 0.0 0.00 0.00 0.00 78 999.0
20260505121554 57 165 5.0 0.0 0.00 0.00 0.00 79 998.9
20260505120110 57 237 5.0 0.0 0.00 0.00 0.00 78 998.7
20260505114553 57 249 5.0 0.0 0.00 0.00 0.00 79 999.0
20260505113053 56 206 3.0 0.0 0.00 0.00 0.00 79 999.0
20260505111553 56 235 5.0 0.0 0.00 0.00 0.00 80 999.0
20260505101543 55 263 2.0 0.0 0.00 0.00 0.00 79 998.8
20260505100043 56 285 4.0 0.0 0.00 0.00 0.00 79 998.6
20260505094543 56 165 4.0 0.0 0.00 0.00 0.00 78 998.5
20260505093043 56 149 4.0 0.0 0.00 0.00 0.00 77 998.2
20260505091540 57 197 4.0 0.0 0.00 0.00 0.00 76 998.4
20260505090140 57 200 4.0 0.0 0.00 0.00 0.00 75 998.5
20260505084538 57 209 4.0 0.0 0.00 0.00 0.00 75 998.6
20260505083035 57 211 5.0 0.0 0.00 0.00 0.00 73 998.9
20260505081539 57 217 3.0 0.0 0.00 0.00 0.00 72 999.0
20260505080038 58 242 3.0 0.0 0.00 0.00 0.00 72 999.1
20260505074533 57 240 4.0 0.0 0.00 0.00 0.00 71 999.0
20260505073046 57 180 4.0 0.0 0.00 0.00 0.00 71 999.0
20260505071529 56 173 4.0 0.0 0.00 0.00 0.00 70 999.1
20260505070028 56 227 5.0 0.0 0.00 0.00 0.00 69 999.1
20260505064537 55 149 3.0 0.0 0.00 0.00 0.00 66 999.0
20260505063022 54 219 2.0 0.0 0.00 0.00 0.00 66 999.1
20260505061530 54 184 3.0 0.0 0.00 0.00 0.00 65 999.1
20260505060020 53 207 3.0 0.0 0.00 0.00 0.00 65 999.4
20260505054523 53 167 2.0 0.0 0.00 0.00 0.00 66 999.4
20260505053016 53 209 2.0 0.0 0.00 0.00 0.00 65 999.6
20260505051517 53 244 2.0 0.0 0.00 0.00 0.00 66 999.6
20260505041512 54 250 1.0 0.0 0.00 0.00 0.00 66 1000.0
20260505040006 54 217 0.0 0.0 0.00 0.00 0.02 67 1000.3
20260505034509 54 216 0.0 0.0 0.00 0.00 0.02 66 1000.3
20260505033005 55 215 0.0 0.0 0.00 0.00 0.02 65 1000.3
20260505031514 55 213 1.0 0.0 0.00 0.00 0.02 64 1000.3
20260505030003 56 211 0.0 0.0 0.00 0.00 0.02 63 1000.4
20260505024506 57 209 1.0 0.0 0.00 0.00 0.02 62 1000.5
20260505023003 57 215 0.0 0.0 0.00 0.00 0.02 61 1000.6
20260505021542 57 218 1.0 0.0 0.00 0.00 0.02 61 1000.6
20260505020042 58 257 2.0 0.0 0.00 0.00 0.02 60 1000.6
20260505014543 58 200 2.0 0.0 0.00 0.00 0.02 60 1000.6
20260505013047 59 192 2.0 0.0 0.00 0.00 0.02 59 1000.8
20260505011542 59 199 2.0 0.0 0.00 0.00 0.02 59 1000.9
20260505010041 59 179 3.0 0.0 0.00 0.00 0.02 59 1000.6
20260505004548 60 202 3.0 0.0 0.00 0.00 0.02 59 1000.9
20260505003042 61 212 3.0 0.0 0.00 0.00 0.02 58 1000.8
20260505001540 62 285 4.0 0.0 0.00 0.00 0.02 57 1000.8
20260505000056 63 250 3.0 0.0 0.00 0.00 0.02 56 1000.7
20260504234540 64 199 3.0 0.0 0.00 0.00 0.02 55 1000.5
20260504233039 65 196 3.0 0.0 0.00 0.00 0.02 55 1000.5
20260504231537 65 188 3.0 0.0 0.00 0.00 0.02 53 1000.4
20260504230044 66 206 4.0 0.0 0.00 0.00 0.02 52 1000.5
20260504224537 67 217 4.0 0.0 0.00 0.00 0.02 50 1000.4
20260504223036 67 191 5.0 0.0 0.00 0.00 0.02 49 1000.5
20260504221549 68 267 7.0 0.0 0.00 0.00 0.02 46 1000.5
20260504220034 69 272 5.0 0.0 0.00 0.00 0.02 47 1000.7
20260504214535 69 238 6.0 0.0 0.00 0.00 0.02 47 1000.7
20260504213041 69 206 6.0 0.0 0.00 0.00 0.02 46 1000.8
20260504211531 69 252 7.0 0.0 0.00 0.00 0.02 46 1000.7
20260504210031 69 293 7.0 0.0 0.00 0.00 0.02 47 1000.7
20260504204528 69 275 8.0 0.0 0.00 0.00 0.02 46 1000.9
20260504203029 68 268 6.0 0.0 0.00 0.00 0.02 48 1001.1
20260504201526 69 292 7.0 0.0 0.00 0.00 0.02 46 1001.1
20260504200025 69 257 8.0 0.0 0.00 0.00 0.02 47 1001.3
20260504194524 69 312 6.0 0.0 0.00 0.00 0.02 47 1001.5